Regional Weather Roundup
Issued by NWS Jackson, KY

Home | Current Version | Previous Version | Graphics & Text | Print | Product List | Glossary On
Versions: 1 2 3 4 5 6 7 8 9 10 11 12 13 14 15 16 17 18 19 20 21 22 23 24 25 26 27 28 29 30 31 32 33 34 35 36 37 38 39 40 41 42 43 44 45 46 47 48 49 50
988
ASUS43 KJKL 222110
RWRJKL

EAST KENTUCKY HOURLY WEATHER ROUNDUP
NATIONAL WEATHER SERVICE JACKSON KY
500 PM EDT THU JUN 22 2017

NOTE: "FAIR" INDICATES FEW OR NO CLOUDS BELOW 12,000 FEET WITH
NO SIGNIFICANT WEATHER AND/OR OBSTRUCTIONS TO VISIBILITY.

* THESE REPORTS ARE NOT UNDER NWS QUALITY CONTROL AND MAY NOT
  REPORT WEATHER SUCH AS PRECIPITATION AND FOG.

KYZ079-080-083-085-087-088-110-112-115-119-120-222200
...EASTERN KENTUCKY...

CITY           SKY/WX    TMP DP  RH WIND       PRES   REMARKS
JACKSON        LGT RAIN  71  69  93 VRB5      30.04F
LONDON         LGT RAIN  74  69  85 S5        30.03F
SOMERSET*      LGT RAIN  70  70 100 S8G20     30.00F
MONTICELLO*    LGT RAIN  72  69  90 E8        29.99F
WILLIAMSBURG*  CLOUDY    72  72 100 SE3       30.03F
MIDDLESBORO*   RAIN      73  71  91 S3        30.06F
HARLAN APT*    CLOUDY    72  66  83 CALM      30.07F
PIKE CO APT*   LGT RAIN  71  71 100 CALM      30.07F
BIG SANDY APT* DRIZZLE   73  72  97 S6        30.05F
MOREHEAD APT*  LGT RAIN  72  68  88 S6        30.04F
$$

KYZ035-036-041-042-044-050-067-078-099-222200
...CENTRAL KENTUCKY...

CITY           SKY/WX    TMP DP  RH WIND       PRES   REMARKS
MT STERLING*   LGT RAIN  72  70  94 S8        30.03F
FLEMING/MASON* LGT RAIN  75  68  79 S13       30.02F
DANVILLE*      RAIN      72  70  94 S7        30.00F
LEXINGTON      LGT RAIN  73  69  87 SE9       29.99F
FRANKFORT      LGT RAIN  73  69  87 SE9       29.97F
LOUISVILLE     LGT RAIN  74  71  91 SE13      29.93F
LEBANON*       RAIN      72  72 100 S10G16    29.97F
GLASGOW*       RAIN      73  73 100 SE6       29.93F
BOWLING GREEN  LGT RAIN  76  74  93 SE13      29.90F FOG
$$

KYZ091>093-OHZ055-061-077-WVZ005-015-034-035-042-222200
...SOUTHERN OHIO/WEST VIRGINIA...

CITY           SKY/WX    TMP DP  RH WIND       PRES   REMARKS
COVINGTON      CLOUDY    79  68  69 S17G24    29.95F
COLUMBUS       CLOUDY    84  70  62 SW12      29.93F
DAYTON         CLOUDY    82  69  64 SW18G26   29.93F
WILMINGTON     CLOUDY    80  70  71 S17       29.96S
HUNTINGTON     CLOUDY    77  68  73 SW8       30.02F
CHARLESTON     CLOUDY    80  67  64 SW12      30.02F
PINEVILLE*     LGT RAIN  74  67  79 MISG      30.14F
BECKLEY        CLOUDY    76  65  68 SW7       30.12F
BLUEFIELD      CLOUDY    72  65  78 W8        30.16F
LOGAN CO APT*    N/A     73  68  83 VRB5      30.07F
$$

VAZ002-007-008-TNZ017-027-036-066-071-222200
...SOUTHWEST VIRGINIA/EAST TENNESSEE...

CITY           SKY/WX    TMP DP  RH WIND       PRES   REMARKS
WISE*          LGT RAIN  70  70 100 CALM      30.15F
JONESVILLE*    LGT RAIN  73  70  88 E5        30.10F
ABINGDON*      DRIZZLE   73  69  87 E3        30.13F
BRISTOL        LGT RAIN  73  70  90 E3        30.09F
MORRISTOWN*    MOCLDY    75  72  88 E7        30.06F
SEVIERVILLE*   CLEAR     73  70  88 CALM      30.04F
KNOXVILLE      LGT RAIN  74  71  91 E6        30.02F
LAFOLLETTE*    CLOUDY    73  72  94 VRB6      30.06F
OAK RIDGE      LGT RAIN  76  71  85 CALM      30.03F
CROSSVILLE     CLOUDY    70  68  93 S8        30.03F
NASHVILLE      LGT RAIN  81  75  82 S16       29.91F
$$

...KEY TO REMARKS...
VSB - VISIBILITY IN MILES
WCI - WIND CHILL INDEX
HX  - HEAT INDEX

$$




USA.gov is the U.S. government's official web portal to all federal, state and local government web resources and services.